Location: Radford
(37.1320°N, 80.5770°W)
Time: 06:51:41
(UTC-04:00)

Daily predictions for brighter satellites

Satellite Brightness Start Highest point End
(mag) Time Altitude Azimuth Time Altitude Azimuth Time Altitude Azimuth
CENTAUR R/B 3.5 20:57:58 10° SSE 21:02:15 21° ESE 21:06:50 10° ENE
Cosmos 990 Rocket 4.1 20:57:44 10° S 21:02:45 53° ESE 21:07:50 10° NNE
ISS -3.5 21:04:00 10° SSW 21:07:05 42° SE 21:10:11 10° ENE
ATLAS 5 CENTAUR R/B 4.3 21:08:26 10° N 21:11:56 16° NE 21:15:35 10° ENE
Tsikada Rocket 4.0 21:06:33 10° S 21:12:46 76° E 21:18:56 10° N
YAOGAN 6 3.6 21:13:09 10° SE 21:16:29 32° ENE 21:19:48 10° N
USA 186 2.3 21:19:39 10° S 21:22:08 46° W 21:24:50 10° NNW
Tiangong 2 2.0 21:19:12 10° WNW 21:22:19 45° NNE 21:25:25 10° E
Hubble Space Telescope 3.0 21:20:54 10° SW 21:23:00 14° SSW 21:25:06 10° SSE
Aureole 3 4.4 21:22:33 13° SE 21:24:04 17° E 21:26:04 10° NE
Meteor 2-10 Rocket 4.0 21:19:30 10° NNW 21:25:20 76° W 21:31:06 10° S
Cosmos 2034 Rocket 4.3 21:19:24 10° N 21:25:35 72° W 21:31:41 10° S
Meteor 2-3 Rocket 3.8 21:20:30 10° S 21:26:10 66° E 21:31:48 10° NNE
GPS 2-04 Rocket1 2.4 21:23:45 10° WSW 21:27:29 67° S 21:30:49 11° E
COSMOS 2487 3.7 21:25:23 10° NNW 21:28:43 40° WSW 21:32:03 10° S
Meteor 1-26 Rocket 4.2 21:23:51 10° N 21:29:31 74° E 21:35:15 10° SSE
OAO 2 Rocket 4.0 21:25:31 10° W 21:30:17 42° SSW 21:34:09 14° SE
Cosmos 1782 4.4 21:29:25 10° NNE 21:32:22 20° ENE 21:34:14 15° ESE
Helios 1B rocket 2.4 21:28:49 10° NNE 21:32:55 62° ESE 21:36:57 10° S
Cosmos 1634 Rocket 4.3 21:28:37 10° N 21:34:45 52° E 21:40:43 11° SSE
H-2A R/B 3.9 21:32:37 11° E 21:35:44 17° ENE 21:39:04 10° NNE
Cosmos 2082 Rocket 3.7 21:31:04 10° NW 21:36:07 35° WSW 21:41:11 10° SSW
Cosmos 1937 Rocket 4.2 21:33:36 10° SSW 21:38:39 58° WNW 21:43:44 10° N
CZ-4B DEB 2.9 21:37:47 19° SE 21:39:37 46° ENE 21:42:27 10° N
OE (NEXTSAT) 4.4 21:36:08 10° WNW 21:39:41 81° NNE 21:42:01 20° ESE
Cosmos 2344 4.2 21:33:31 10° S 21:40:10 32° ESE 21:47:02 10° NE
SL-19 R/B 4.4 21:35:49 10° SSE 21:41:28 86° WSW 21:47:34 10° NNW
Lacrosse 4 Rocket 3.8 21:39:54 10° NNE 21:41:54 13° NE 21:43:53 10° ENE
Cosmos 1408 3.7 21:42:05 19° SE 21:43:45 27° E 21:46:55 10° NNE
Cosmos 1833 Rocket 4.5 21:42:28 10° NW 21:47:14 29° WSW 21:51:58 10° SSW
Cosmos 1825 3.1 21:45:47 21° SE 21:47:22 28° E 21:50:38 10° NNE
Meteor 1-29 2.9 21:44:24 10° NNE 21:47:54 77° E 21:51:23 10° S
TIMED 4.4 21:46:02 10° S 21:50:22 72° ESE 21:54:45 10° NNE
Resurs 01 Rocket 3.9 21:49:47 10° SSW 21:53:13 22° W 21:56:41 10° NW
Shenzhou-11 Module 1.9 21:50:41 10° WNW 21:53:46 87° NNE 21:55:05 31° ESE
Helios 1A 3.4 21:55:52 11° S 21:59:49 60° W 22:03:59 10° NNW
Molniya-1 3.3 21:58:38 10° SW 22:00:27 45° WNW 22:01:01 29° N
Cosmos 1892 4.2 21:58:17 10° SSW 22:01:52 37° W 22:05:28 10° N
MetOp-A 4.2 22:01:46 22° SE 22:05:11 60° ENE 22:10:28 10° N
COSMOS 2455 3.1 21:59:26 10° SW 22:05:25 71° WNW 22:11:27 10° NNE
ERS-1 Rocket 2.9 22:03:26 21° SSE 22:06:49 74° ENE 22:11:52 10° N
Cosmos 2279 Rocket 4.1 22:03:40 10° N 22:09:50 57° E 22:13:33 24° SSE
Cosmos 1943 Rocket 2.1 22:05:12 10° S 22:10:43 62° ESE 22:16:12 10° NNE
Cosmos 2263 4.2 22:08:13 10° SSW 22:13:59 84° ESE 22:19:46 10° NNE
Cosmos 2142 Rocket 4.5 22:08:47 10° N 22:14:57 85° W 22:19:54 16° S
NOAA 11 4.2 22:13:36 21° SSE 22:17:21 88° WSW 22:22:52 10° NNW
USA 215 3.4 22:19:36 26° ESE 22:23:32 70° NE 22:30:04 10° NW
Milstar 3 3.8 22:13:22 10° WSW 22:24:01 41° S 22:27:31 28° SE
Cosmos 1340 2.9 22:21:54 10° N 22:25:35 49° E 22:25:58 47° E
Okean 1-7 3.2 22:22:42 10° NNW 22:27:06 71° W 22:29:17 29° S
Lacrosse 5 rocket 2.5 22:25:00 10° WSW 22:28:21 38° NW 22:31:47 10° NNE
Cosmos 2369 Rocket 3.0 22:23:04 10° SW 22:28:33 51° WNW 22:34:06 10° NNE
SPOT 1/Viking Rocket 3.8 22:31:52 38° SE 22:33:32 54° ENE 22:38:36 10° N
SL-08 RB Rocket 3.7 22:35:00 44° SSE 22:36:24 75° ENE 22:41:05 10° N
Cosmos 1606 2.8 22:32:43 10° NNW 22:36:29 70° W 22:37:22 49° SSW
DNEPR-1 R/B 4.2 22:31:47 10° SW 22:37:10 66° WNW 22:41:44 10° NNE
Intercosmos 25 Rocket 4.4 22:34:09 10° N 22:41:01 47° ENE 22:42:06 41° ESE
ISS -1.1 22:41:08 10° W 22:43:40 21° NNW 22:46:14 10° NNE
Cosmos 372 Rocket 4.3 22:40:52 10° SSW 22:45:57 65° WNW 22:51:03 10° NNE
Cosmos 1733 Rocket 2.9 22:45:52 64° SE 22:46:14 68° E 22:50:31 10° NNE
OAO 3 Copernicus 4.3 22:41:52 10° WSW 22:46:47 56° SSE 22:47:06 55° SSE
Cosmos 1269 Rocket 3.9 22:42:00 10° NNW 22:47:19 84° ENE 22:48:45 50° SSE
Meteor 1-27 Rocket 3.7 22:41:41 10° N 22:47:28 76° E 22:49:13 45° SSE
Terra 2.6 22:49:48 35° E 22:50:06 36° ENE 22:54:27 10° N
Cosmos 1125 Rocket 4.4 22:46:51 10° SW 22:51:54 47° WNW 22:56:58 10° N
CENTAUR R/B 3.1 22:46:17 10° SW 22:52:08 58° NW 22:58:49 10° NNE
Nimbus 7 Rocket 4.3 22:50:51 10° NNE 22:56:47 90° WNW 22:59:42 32° SSW
ATLAS 5 CENTAUR R/B 2.4 22:51:27 10° NNW 22:57:33 74° ENE 22:59:28 47° SE
Tiangong 2 3.2 22:56:13 10° W 22:57:47 23° W 22:57:47 23° W
SPOT 5 3.4 22:58:43 38° SSW 23:00:38 61° WSW 23:05:55 10° NNW
Meteor 2-20 4.4 23:03:29 51° SSE 23:04:59 70° E 23:11:04 10° NNE
GPS 2-04 Rocket1 4.2 23:03:31 10° W 23:05:16 26° W 23:05:16 26° W
ARGOS 4.0 23:06:21 30° SSW 23:08:30 44° W 23:13:37 10° NNW
Cosmos 1656 Rocket 3.5 23:10:03 53° SSW 23:11:25 88° ESE 23:16:57 10° NNE
Cosmos 1867 4.4 23:07:06 10° NNW 23:12:11 38° NE 23:12:56 36° ENE
H-2A R/B 2.5 23:13:15 45° SSW 23:14:37 59° W 23:19:56 10° NNW
CARTOSAT-1 3.8 23:19:18 63° NNE 23:19:18 63° NNE 23:23:04 10° N
Lacrosse 4 Rocket 1.8 23:16:38 10° NNW 23:20:44 65° WNW 23:20:44 65° WNW
Cosmos 1674 Rocket 3.8 23:21:04 10° NNW 23:24:54 64° NW 23:24:54 64° NW
Meteor 1-14 Rocket 4.3 23:26:51 64° E 23:26:55 64° E 23:32:42 10° NNE
Cosmos 1378 Rocket 4.2 23:22:35 10° N 23:26:03 48° NNE 23:26:03 48° NNE
Cosmos 1092 Rocket 3.9 23:27:20 55° SSW 23:28:48 80° W 23:34:58 10° N
Cosmos 494 Rocket 4.0 23:24:01 10° NNW 23:29:03 70° NE 23:29:03 70° NE
ATLAS CENTAUR R/B 3.8 23:33:01 14° NE 23:33:01 14° NE 23:33:34 10° NE
SL-19 R/B 4.4 23:24:06 10° NNE 23:30:11 76° ESE 23:30:53 68° SSE
H-2A R/B 3.0 23:37:08 42° N 23:37:08 42° N 23:39:58 10° N
Cosmos 1627 Rocket 4.3 23:35:54 72° SE 23:36:24 77° E 23:42:44 10° N
Cosmos 2227 Rocket 3.9 23:34:45 10° N 23:38:49 20° NE 23:39:30 19° ENE
Cosmos 2219 3.4 23:37:57 10° NNW 23:43:36 62° ENE 23:43:36 62° ENE
CZ-2C R/B 4.4 23:39:42 10° NE 23:41:45 19° ENE 23:41:45 19° ENE
CZ-4B R/B 4.1 23:42:28 10° NNE 23:46:05 46° NE 23:46:05 46° NE
